DELTA 1 DEB, 21677

Orbit data source: Space-Track

DELTA 1 DEB, 21677 is space debris in SSO originally from a launch on Thu, 12 Jun 1975 UTC launched from the Air Force Western Test Range (AFWTR). Debris objects in space refer to the collection of defunct objects orbiting the Earth. Examples of debris include non-operational satellites, rocket bodies, and fragments generated from explosions, collisions, or faulty payload assembly.

Loading next visibility...
Identifier
21677, 1975-052JD
Orbit
SSO
Country
Flag of USUS
Related business
Manufacturer
Unknown
Mission
Spacecraft
Bus & Motor
Unknown
Mass
Unknown
Launch date (UTC)
1975-06-12 (51 years ago)
Launch vehicle
Unknown
Launch site
Air Force Western Test Range (AFWTR)
Object type
Payload
Rocket body
Debris
Shape & HBR
Unknown shape, 0.1 m
Radar Cross Section
Small (<0.1 m²)

Expand to show TLE details & history
Last TLE update: 3 days ago

TLE from 3 days ago
0 DELTA 1 DEB
1 21677U 75052JD  25351.97769455  .00000128  00000-0  50933-3 0  9994
2 21677  99.8907 141.9083 0479144 211.9714 279.0892 12.71886234604972
Epoch: 2025-12-17T23:27Z
TLE epoch observation values (Epoch: 2025-12-17T23:27:52.809Z)
Latitude
53.32573°
Longitude
-103.42924°
Altitude
1,341.693 km
Speed
7.211 km/s
True Right ascension
22h 21m 31s
True Declination
53° 10' 24"
Sunlit
Object was in daylight at epoch
Visualization orbit readout
Latitude
Unknown
Longitude
Unknown
Altitude
Unknown
Speed
Unknown
Apparent Right ascension
Unknown
Apparent Declination
Unknown
Sunlit
N/A
Visualization observer readout
Local Sidereal Time
10:43:44
Azimuth
Unknown
Elevation
Unknown
Doppler factor
Unknown
Orbital elements
Apogee altitude
1,743.001 km
Perigee altitude
1,000.346 km
Semi-major axis
7,749.81 km
Eccentricity
0.04791
Inclination
99.8907°
RAAN
141.9083°
Arg. of periapsis
211.9714°
True anomaly
273.6241°
Mean anomaly
279.0892°
Eccentric anomaly
276.36081°
Mean motion
3.18131 °/min
Orbital period
113.16 mins
BSTAR
0.00050933
Loading maneuver chart data...
Computing Atmospheric mass density...
Loading historical data...
Loading historical data...
Loading historical data...
Loading historical data...
Loading historical data...
Loading historical data...
Loading historical data...

Documentation

Showing up to 5 results
|